Regional Weather Roundup
Issued by NWS

Home | Current Version | Previous Version | Graphics & Text | Print | Product List | Glossary On
Versions: 1 2 3 4 5 6 7 8 9 10 11 12 13 14 15 16 17 18 19 20 21 22 23 24 25 26 27 28 29 30 31 32 33 34 35 36 37 38 39 40 41 42 43 44 45 46 47 48 49 50
000
ASUS45 KABQ 031601
RWRNM
NEW MEXICO REGIONAL WEATHER ROUNDUP
NATIONAL WEATHER SERVICE ALBUQUERQUE NM
1000 AM MDT MON AUG 03 2015

NOTE: "FAIR" MEANS FEW OR NO CLOUDS BELOW 12,000 FEET AGL WITH NO
       SIGNIFICANT WEATHER OR OBSTRUCTIONS TO VISION.

      THIS PRODUCT IS RELEASED AS TWO VERSIONS.  ONE VERSION NEAR
      THE TOP OF THE HOUR CONTAINING PRELIMINARY DATA FROM ALBUQUERQUE
      AND OTHER STATIONS.  A FINAL VERSION WITH ADDITIONAL DATA IS
      ISSUED ABOUT 10 MINUTES AFTER THE HOUR.

NMZ501-503-504-510>518-031700-
NORTHWEST PLATEAU/NORTHCENTRAL MOUNTAINS

CITY           SKY/WX    TMP DP  RH WIND       PRES   REMARKS
FARMINGTON     SUNNY     67  59  75 SE6       30.20R
LOS ALAMOS     SUNNY     65  56  73 NE6       30.29S
SANTA FE       MOSUNNY   71  56  58 NE6       30.23S
TAOS           PTSUNNY   64  50  59 W3        30.29F
ANGEL FIRE     FAIR      62  50  63 W13       30.35S

$$
NMZ402-403-502-505>509-031700-
WESTCENTRAL MOUNTAINS/SOUTHWEST MOUNTAINS

CITY           SKY/WX    TMP DP  RH WIND       PRES   REMARKS
GALLUP         SUNNY     67  56  67 CALM      30.27S
GRANTS         MOSUNNY   61  61 100 NW6       30.29S
SILVER CITY      N/A     77  55  47 NW3       30.21R

$$
NMZ407-409-411-412-031700-
SOUTHERN DESERTS

CITY           SKY/WX    TMP DP  RH WIND       PRES   REMARKS
DEMING         PTSUNNY   79  60  52 CALM      30.12S
HOLLOMAN AFB   CLOUDY    80  60  49 VRB2      30.07S
ALAMOGORDO     MOSUNNY   79  59  50 SW3       30.10S
T OR C         MOSUNNY   79  58  48 SW3       30.14S

$$
NMZ519>523-031700-
CENTRAL VALLEYS/CENTRAL HIGHLANDS

CITY           SKY/WX    TMP DP  RH WIND       PRES   REMARKS
ALBUQUERQUE    MOSUNNY   72  59  63 CALM      30.20R
DOUBLE EAGLE   MOSUNNY   72  61  68 VRB5      30.23S
MORIARTY ARPT    N/A     73  55  52 W6        30.23S
CLINES CORNERS SUNNY     70  56  61 W15       30.25S
BELEN          FAIR      74  57  54 N3        30.18S
SOCORRO        NOT AVBL

$$
NMZ524>526-539-540-031700-
SOUTHCENTRAL MOUNTAINS

CITY           SKY/WX    TMP DP  RH WIND       PRES   REMARKS
RUIDOSO          N/A    N/A N/A N/A MISG        N/A

$$
NMZ527>531-031700-
NORTHEAST HIGHLANDS/NORTHEAST PLAINS

CITY           SKY/WX    TMP DP  RH WIND       PRES   REMARKS
RATON          NOT AVBL
CLAYTON        SUNNY     78  61  55 W13       30.08F

$$
NMZ532>537-031700-
EASTCENTRAL PLAINS

CITY           SKY/WX    TMP DP  RH WIND       PRES   REMARKS
TUCUMCARI      PTSUNNY   75  66  73 W6        30.05R
CANNON AFB     PTSUNNY   76  64  66 S7        30.07R
CLOVIS AIRPORT PTSUNNY   77  64  65 SW9       30.08S

$$
NMZ028-029-538-031700-
SOUTHEAST PLAINS

CITY           SKY/WX    TMP DP  RH WIND       PRES   REMARKS
ROSWELL        PTSUNNY   82  63  52 VRB3      30.03F
ARTESIA        CLOUDY    81  63  54 VRB5      30.05S
CARLSBAD       CLOUDY    83  63  50 NW8       30.01F
HOBBS          SUNNY     82  63  51 SE18      30.05S


$$



USA.gov is the U.S. government's official web portal to all federal, state and local government web resources and services.